Regional Weather Roundup
Issued by NWS

Home | Current Version | Previous Version | Text Only | Print | Product List | Glossary On
Versions: 1 2 3 4 5 6 7 8 9 10 11 12 13 14 15 16 17 18 19 20 21 22 23 24 25 26 27 28 29 30 31 32 33 34 35 36 37 38 39 40 41 42 43 44 45 46 47 48 49 50
000
ASHW40 PHFO 290743
RWRHI

WEATHER ROUNDUP FOR HAWAII
NATIONAL WEATHER SERVICE HONOLULU HI
900 PM HST FRI NOV 28 2014

THIS IS AN AUTOMATED REPORT THAT HAS NOT BEEN QUALITY CONTROLLED.

NOTE..."FAIR" INDICATES FEW OR NO CLOUDS BELOW 12,000 FEET WITH NO
SIGNIFICANT WEATHER AND/OR OBSTRUCTIONS TO VISIBILITY.

* - THESE SITES REPORT LIMITED FIELDS

HIZ001>004-290800-
KAUAI-NIIHAU-

CITY           SKY/WX    TMP DP  RH WIND       PRES   REMARKS
LIHUE APT      MOCLDY    74  64  71 NE21G32   30.09R
PORT ALLEN*      N/A     73 N/A N/A NE17G26     N/A
POIPU*           N/A     73 N/A N/A NE12G23     N/A
PRINCEVILLE*     N/A     73 N/A N/A MISG        N/A
KOKOLE POINT*  NOT AVBL
MOLOAA DAIRY*  NOT AVBL
WAIMEA HTS*      N/A     72  55  56 E3G18       N/A
PUU OPAE*        N/A     64  55  72 E3G13       N/A
PUU LUA*       NOT AVBL
MAKAHA RIDGE*  NOT AVBL
$$

HIZ005>011-290800-
OAHU-

CITY           SKY/WX    TMP DP  RH WIND       PRES   REMARKS
HONOLULU       LGT RAIN  75  64  68 NE16      30.04S
KALAELOA       PTCLDY    72  63  73 E6        30.06S
KANEOHE MCB    CLOUDY    76  64  66 E13G21      N/A
WHEELER FIELD  DRIZZLE   70  64  83 NW3       30.07S
BELLOWS*         N/A    N/A N/A N/A NE24        N/A
KAHUKU*          N/A    N/A N/A N/A NE9G18      N/A
WHEELER*       NOT AVBL
WAIANAE HARBOR NOT AVBL
DILLINGHAM*      N/A     72  64  78 E3          N/A
KAHUKU TRN*      N/A     70  63  78 E12G24      N/A
KAWAILOA*        N/A     66  63  88 NE12G25     N/A
KII*             N/A     73  64  73 NE21G30     N/A
MAKUA RANGE*     N/A     73  63  68 E13G22      N/A
OAHU FOREST NW   N/A     64   0   7 CALM        N/A
SCHOFIELD BRK*   N/A     68  63  83 MISG        N/A
SCHOFIELD S*   NOT AVBL
WAIANAE VLY*     N/A    N/A N/A N/A SW5G26      N/A
KUAOKALA*        N/A    N/A N/A N/A CALM        N/A
HONOULIUULI*   NOT AVBL
MOKUOLOE IS*     N/A    N/A N/A N/A MISG        N/A
PALEHUA*         N/A     73  64  73 CALM        N/A
WAIAWA PHB*    NOT AVBL
$$

HIZ012>013-290800-
MOLOKAI-

CITY           SKY/WX    TMP DP  RH WIND       PRES   REMARKS
MOLOKAI AIRPT  CLEAR     72  64  76 NE13G20   30.05F
KALAUPAPA      NOT AVBL
MAKAPULAPAI*     N/A     73  68  83 E18G29      N/A
MOLOKAI 1*       N/A    N/A N/A N/A N5G20       N/A
PUU ALII*        N/A     56  56 100 E2G10       N/A
$$

HIZ016-290800-
KAHOOLAWE-

CITY           SKY/WX    TMP DP  RH WIND       PRES   REMARKS
KAHOOLAWE*       N/A     68 N/A N/A NE8G14      N/A
HAKIOAWA*      NOT AVBL
HONOKANAIA*      N/A     75  64  69 N8G18     30.04S
KANELOA*         N/A     72  63  73 NE5G28    29.26R
KEALIALALO*    NOT AVBL
LUA MAKIKA*    NOT AVBL
$$

HIZ014>015-290800-
LANAI-

CITY           SKY/WX    TMP DP  RH WIND       PRES   REMARKS
LANAI CITY       N/A    N/A N/A N/A MISG        N/A
LANAI 1*         N/A     68  66  94 NE22G38     N/A
$$

HIZ017>028-290800-
MAUI-

CITY           SKY/WX    TMP DP  RH WIND       PRES   REMARKS
KAHULUI        MOCLDY    71  64  78 NE10      30.06S
KAPALUA-W MAUI NOT AVBL
HANA AIRPORT   MOCLDY    73  66  78 NE12      30.09F
HANA*            N/A     77 N/A N/A E12G17      N/A
HALEAKALA SUMM   N/A     46   9  21 NE14        N/A
MAALAEA BAY*   NOT AVBL
HALEAKALA*     NOT AVBL
KAUPO GAP*       N/A     63  48  59 N7G22       N/A
KULA 1*          N/A     50  42  75 E3          N/A
$$

HIZ023>026-290800-
BIG ISLAND OF HAWAII COAST AND LOWER SLOPES-

CITY           SKY/WX    TMP DP  RH WIND       PRES   REMARKS
KAILUA KONA    CLOUDY    78  68  71 E3        29.97S
HILO           CLOUDY    72  69  90 S3        30.05R
HONOKAA*       NOT AVBL
KAWAIHAE MWT*    N/A     81 N/A N/A NE9G24      N/A
KAWAIHAE*        N/A     82 N/A N/A E18G28      N/A
SOUTH POINT*     N/A     70 N/A N/A NE14G21     N/A
UPOLU AIRPORT*   N/A    N/A N/A N/A E18G25      N/A
KAMUELA*       LGT RAIN  63  63 100 NE20      30.12F
HAKALAU*         N/A     53  53  99 S1          N/A
KALOKO-HONOKO*   N/A     73  66  78 NE3       29.97R
PALI 2*          N/A     64  61  88 N18G26      N/A
KEALAKOMO*       N/A     75  66  73 NE16G24     N/A
KAUPULEHU*       N/A     72  61  68 N5G12       N/A
KAPAPALA*      NOT AVBL
LOWER KAHUKU*    N/A     63  59  88 N2G10       N/A
PUHE CS*       NOT AVBL
PUHO CS*         N/A     75  65  71 E2          N/A
PTA KEAMUKU*     N/A     61  59  94 CALM        N/A
WAIKOLOA*        N/A     72  61  68 E22G35      N/A
$$

HIZ027>028-290800-
BIG ISLAND OF HAWAII INTERIOR AND SUMMMITS-

CITY           SKY/WX    TMP DP  RH WIND       PRES   REMARKS
BRADSHAW FIELD CLOUDY    52  52 100 SE2       30.33S FOG
MK VISITOR CEN NOT AVBL
MAUNA KEA*       N/A     36  19  51 CALM        N/A
MAUNA LOA*       N/A     45  10  24 MISG        N/A
MAUNA LOA 1*   NOT AVBL
PTA KIPUKA*      N/A     54  46  76 E2          N/A
PTA RANGE 17*    N/A     57  52  82 E10G24      N/A
PTA WEST*        N/A     63  54  72 SW12        N/A
NENE CABIN*      N/A    N/A N/A N/A E3G9        N/A
AHUMOA*          N/A     53  52  95 NE8         N/A
PTA PORTABLE*  NOT AVBL
PUU MALI*      NOT AVBL
$$

HIC003-290800-
NORTHWEST ISLANDS-

CITY           SKY/WX    TMP DP  RH WIND       PRES   REMARKS
MIDWAY ISLAND  LGT RAIN  75  72  88 S21G35    29.92F
MIDWAY NOS*    NOT AVBL
FRENCH FRIGATE NOT AVBL
$$

PHZ110>124-180-290800-
BUOY REPORTS

STATION/POSITION TIME  TEMP    WIND        PRES    WAVE   SWELL
                       AIR SEA DIR/SP/G            HT/PER HT/DIR
                 (UTC) (F)     (DEG/KT/KT) (MB)    (FT/S) (FT/D)
BUOY 51001       NOT AVBL
BUOY 51101       0700   72 77   50/ 23/ 27 1019.8F  10/ 8   5/ 10
BUOY 51100       NOT AVBL
BUOY 51003       0700   78 80   50/ 19/ 21 1015.4R  10/ 8   5
BUOY 51004       0553   78 79   70/ 16/ 19 1014.5S   9/13   7/350
BARBERS PT BUOY  NOT AVBL
WAIMEA BAY BUOY  0700      78                N/A     8/12   5/360
KAILUA BAY BUOY  0700      78                N/A     9/12   3
LANAI BUOY       0700      79                N/A     2/13   2/280
BARBERS PT 2     0700      78                N/A     4/13   2/310
PAUWELA MAUI     0700      78                N/A    10/13   7/340
HILO             0700      79                N/A    10/ 8   5/350
KANEOHE BAY BUOY 0700      78                N/A    10/13   5
HANALEI KAUAI    NOT AVBL
KAHULUI HARBOR   0700   73 76   50/  9/ 12 1017.8F
HONOLULU HARBOR  0700   75      90/  2/  6 1017.7S
KILO NALU        NOT AVBL
HILO HARBOR      0700   73     110/  4/  7 1017.2R
MOKUOLOE         0700      75              1018.3S
NAWILIWILI       0700      77                N/A
WHOTS BUOY       NOT AVBL
BUOY 51028       NOT AVBL
$$

......................KEY........................................
  SKY/WX - SKY CONDITIONS/PRESENT WEATHER
  TMP    - TEMPERATURE IN FAHRENHEIT
  DWPT   - DEWPOINT IN FAHRENHEIT
  RH     - RELATIVE HUMIDITY IN PERCENT
  WIND   - DIRECTION AND SPEED /MPH FOR ISLANDS...KTS FOR BUOYS/
  PRES   - MEAN SEA LEVEL PRESSURE IN INCHES OF HG
  VSB    - VISIBILITY IN MILES
  HX     - HEAT INDEX
  WCI    - WIND CHILL INDEX
  VRB    - VARIABLE WIND DIRECTION
  N/A    - NOT AVAILABLE


USA.gov is the U.S. government's official web portal to all federal, state and local government web resources and services.